EW4622 Weather Reports


Display with metric or nautical units.
time (UTC)temp
F
wind
direction
speed
MPH
gust
MPH
rain 1hr
in
rain 24hr
in
rain mn
in
humidity
%
barometer
mb
20260507231518 57 309 0.0 0.0 0.00 0.02 0.02 56 1012.4
20260507230018 57 309 0.0 0.0 0.00 0.03 0.02 55 1012.5
20260507224518 57 309 0.0 0.0 0.00 0.03 0.02 54 1012.4
20260507223016 57 309 0.0 0.0 0.00 0.03 0.02 54 1012.5
20260507221502 57 309 0.0 0.0 0.00 0.03 0.02 54 1012.5
20260507220002 58 309 0.0 0.0 0.00 0.03 0.02 53 1012.4
20260507214609 58 309 0.0 2.0 0.00 0.03 0.02 53 1012.3
20260507213106 58 309 0.0 1.0 0.00 0.03 0.02 53 1012.4
20260507211559 58 309 0.0 0.0 0.00 0.03 0.02 55 1012.4
20260507210104 58 309 0.0 0.0 0.00 0.03 0.02 55 1012.5
20260507204558 58 309 0.0 3.0 0.00 0.03 0.02 53 1012.4
20260507203057 59 309 0.0 0.0 0.00 0.03 0.02 55 1012.3
20260507201545 59 309 0.0 2.0 0.00 0.03 0.02 55 1012.3
20260507200047 59 309 0.0 1.0 0.00 0.03 0.02 54 1012.4
20260507194612 59 309 0.0 1.0 0.00 0.03 0.02 56 1012.5
20260507193043 59 309 0.0 1.0 0.01 0.03 0.02 57 1012.5
20260507191539 59 309 0.0 2.0 0.01 0.03 0.02 57 1012.5
20260507190036 60 309 0.0 2.0 0.01 0.04 0.02 59 1012.2
20260507184537 60 310 0.0 2.0 0.01 0.04 0.02 60 1012.2
20260507183041 61 310 0.0 3.0 0.00 0.03 0.02 60 1012.0
20260507181519 62 308 0.0 2.0 0.00 0.03 0.02 60 1012.1
20260507180028 63 233 0.0 2.0 0.00 0.03 0.02 60 1012.0
20260507174617 63 239 0.0 2.0 0.00 0.03 0.02 59 1011.9
20260507173016 64 236 0.0 3.0 0.00 0.03 0.02 59 1011.8
20260507171512 65 233 0.0 3.0 0.00 0.03 0.02 57 1011.7
20260507170007 66 241 0.0 3.0 0.00 0.03 0.02 56 1011.8
20260507164504 67 243 0.0 4.0 0.00 0.03 0.02 54 1011.9
20260507163003 67 243 0.0 3.0 0.00 0.03 0.02 53 1011.9
20260507161603 67 250 0.0 2.0 0.00 0.03 0.02 52 1011.9
20260507160050 67 236 1.0 7.0 0.00 0.04 0.02 49 1011.9
20260507154550 67 223 0.0 4.0 0.00 0.04 0.02 50 1011.8
20260507153055 67 235 0.0 4.0 0.00 0.04 0.02 49 1011.9
20260507151547 67 248 2.0 7.0 0.00 0.04 0.02 49 1011.9
20260507150050 67 233 2.0 6.0 0.00 0.05 0.02 49 1012.0
20260507144548 68 250 2.0 5.0 0.01 0.05 0.02 51 1012.2
20260507143047 68 238 2.0 6.0 0.01 0.05 0.02 48 1012.2
20260507141524 69 223 2.0 8.0 0.01 0.05 0.02 50 1012.3
20260507140021 69 240 1.0 7.0 0.01 0.06 0.02 51 1012.5
20260507134503 68 235 1.0 7.0 0.00 0.05 0.01 54 1012.6
20260507133106 68 271 2.0 6.0 0.01 0.05 0.01 54 1012.6
20260507131548 68 193 0.0 5.0 0.01 0.05 0.01 58 1012.8
20260507130046 68 234 1.0 5.0 0.01 0.06 0.01 58 1012.7
20260507124544 68 212 1.0 7.0 0.01 0.06 0.01 59 1012.8
20260507123045 67 225 1.0 5.0 0.00 0.05 0.00 62 1012.7
20260507121543 67 206 1.0 5.0 0.00 0.05 0.00 63 1012.8
20260507120043 66 223 1.0 4.0 0.00 0.06 0.00 65 1012.9
20260507114534 65 235 1.0 4.0 0.00 0.06 0.00 64 1012.9
20260507113041 65 238 1.0 6.0 0.00 0.06 0.00 65 1013.1
20260507111517 64 253 1.0 5.0 0.00 0.06 0.00 66 1013.3
20260507110015 64 210 2.0 9.0 0.00 0.08 0.00 65 1013.5
20260507104514 63 187 2.0 5.0 0.00 0.08 0.00 62 1013.5
20260507103008 0 0.0 0.0 0.00 0.08 0.00 1013.7
20260507101507 0 0.0 0.0 0.00 0.08 0.00 1013.8
20260507100105 0 0.0 0.0 0.00 0.08 0.00 1013.8
20260507094557 0 0.0 0.0 0.00 0.08 0.00 1013.7
20260507093049 0 0.0 0.0 0.00 0.08 0.00 1013.7
20260507091547 0 0.0 0.0 0.00 0.08 0.00 1013.7
20260507090029 0 0.0 0.0 0.00 0.08 0.00 1013.9
20260507084525 0 0.0 0.0 0.00 0.08 0.00 1013.9
20260507083022 0 0.0 0.0 0.00 0.08 0.00 1013.7
20260507081516 0 0.0 0.0 0.00 0.08 0.00 1013.8
20260507080012 0 0.0 0.0 0.00 0.08 0.08 1013.6
20260507074508 0 0.0 0.0 0.00 0.08 0.08 1013.6
20260507073003 0 0.0 0.0 0.00 0.08 0.08 1013.5
20260507071559 0 0.0 0.0 0.00 0.08 0.08 1013.4
20260507070044 0 0.0 0.0 0.00 0.08 0.08 1013.2
20260507064545 0 0.0 0.0 0.00 0.08 0.08 1013.1
20260507063045 0 0.0 0.0 0.00 0.08 0.08 1013.1
20260507061536 0 0.0 0.0 0.00 0.08 0.08 1013.0
20260507060025 0 0.0 0.0 0.00 0.08 0.08 1012.8
20260507054521 0 0.0 0.0 0.00 0.08 0.08 1012.7
20260507053021 0 0.0 0.0 0.00 0.08 0.08 1012.6
20260507051513 0 0.0 0.0 0.00 0.08 0.08 1012.6
20260507050100 0 0.0 0.0 0.00 0.08 0.08 1012.4
20260507044601 0 0.0 0.0 0.00 0.08 0.08 1012.3
20260507043058 0 0.0 0.0 0.00 0.08 0.08 1012.2
20260507041601 0 0.0 0.0 0.00 0.08 0.08 1012.0
20260507040106 0 0.0 0.0 0.00 0.08 0.08 1011.9
20260507034619 0 0.0 0.0 0.00 0.08 0.08 1012.0
20260507033106 0 0.0 0.0 0.00 0.08 0.08 1012.0
20260507031556 0 0.0 0.0 0.00 0.08 0.08 1012.0
20260507030044 0 0.0 0.0 0.00 0.08 0.08 1012.1
20260507024553 0 0.0 0.0 0.00 0.08 0.08 1012.0
20260507023043 0 0.0 0.0 0.00 0.08 0.08 1012.2
20260507021540 50 229 0.0 0.0 0.00 0.08 0.08 1 1012.3
20260507020034 50 229 0.0 0.0 0.00 0.08 0.08 1 1012.2
20260507014530 50 229 0.0 0.0 0.00 0.08 0.08 1 1012.1
20260507013025 50 229 0.0 0.0 0.00 0.08 0.08 1 1012.1
20260507011521 51 229 0.0 0.0 0.00 0.08 0.08 1 1012.0
20260507010059 51 229 0.0 0.0 0.00 0.09 0.08 1 1012.1
20260507004555 51 229 0.0 1.0 0.00 0.09 0.08 1 1012.2
20260507003038 52 229 0.0 0.0 0.00 0.09 0.08 1 1012.1
20260507003013 52 229 0.0 0.0 0.00 0.09 0.08 1 1012.2
20260507000030 52 229 0.0 0.0 0.00 0.09 0.08 1 1012.2
20260506234542 52 229 0.0 0.0 0.00 0.09 0.08 1 1012.1
20260506233023 53 228 0.0 1.0 0.01 0.09 0.08 1 1012.4